Flag for Montenegro Weather past 2 weeks in Nikšić, Montenegro

Now
49 °F

Passing clouds.


Feels Like: 46 °F
Forecast: 27 / 49 °F
Wind: 7 mph from Northeast

Location: Niksic

Current Time: Mar 29, 2015 at 1:34:57 PM

Latest Report: Mar 29, 2015 at 12:00 PM


Visibility: 13 mi

Pressure: 29.85 "Hg

Humidity: 39%

Dew point: 25 °F

Location of NikšićLocation

Historic Weather in Nikšić — Graph

°F

Nikšić temperature yesterday

Maximum temperature yesterday: 48 °F (at 12:00 PM)
Minimum temperature yesterday: 43 °F (at 6:00 PM)
Average temperature yesterday: 45 °F

Past Weeks' High & Low Weather Summary

 TemperatureHumidityPressure
High61 °F (Mar 26, 4:00 PM)100% (Mar 15, 5:00 AM)30.52 "Hg (Mar 15, 5:00 AM)
Low26 °F (Mar 21, 6:00 AM)20% (Mar 21, 11:00 AM)27.29 "Hg (Mar 20, 1:00 AM)
Average45 °F71%30.06 "Hg
* Reported Mar 14 11:00 AM — Mar 29 12:00 Noon, Nikšić, Weather by CustomWeather, © 2015

Note: Actual official high and low records may vary slightly from our data, if they occured in-between our weather recording intervals... More about our weather records

Advertising

Nikšić weather history for previous 24 hours

 ConditionsComfort  
Time TempWeatherWind HumidityBarometerVisibility
12:00 PM
Sun, Mar 29
49 °FPassing clouds.7 mph39%29.85 "Hg12 mi
11:00 AM47 °FPassing clouds.7 mph43%29.86 "Hg12 mi
10:00 AM44 °FPassing clouds.9 mph49%29.87 "Hg12 mi
9:00 AM43 °FPassing clouds.7 mph53%29.89 "Hg12 mi
8:00 AM42 °FPassing clouds.7 mph56%29.90 "Hg12 mi
7:00 AM40 °FScattered clouds.5 mph67%29.90 "Hg12 mi
6:00 AM40 °FPassing clouds.3 mph72%29.89 "Hg12 mi
5:00 AM41 °FPassing clouds.6 mph73%29.88 "Hg12 mi
1:00 AM42 °FPassing clouds.5 mph78%29.90 "Hg12 mi
10:00 PM
Sat, Mar 28
43 °FOvercast.8 mph72%29.89 "Hg12 mi
9:00 PM43 °FOvercast.8 mph72%29.90 "Hg12 mi
8:00 PM43 °FOvercast.9 mph72%29.89 "Hg12 mi
7:00 PM43 °FOvercast.7 mph73%29.88 "Hg12 mi
6:00 PM43 °FOvercast.7 mph71%29.86 "Hg12 mi
5:00 PM44 °FOvercast.5 mph75%29.85 "Hg12 mi
4:00 PM44 °FOvercast.6 mph70%29.83 "Hg12 mi
3:00 PM46 °FOvercast.9 mph61%29.81 "Hg12 mi
2:00 PM47 °FOvercast.6 mph62%29.79 "Hg12 mi
1:00 PM48 °FOvercast.6 mph62%29.79 "Hg12 mi
Weather by CustomWeather, © 2015

See weather overviewHow to use our weather pages